UWE-4 (43880 NORAD) Tracking and Keplerian Element Data

This shows tracking and keplerian element data for the satellite.

Feedback or suggestion? Click here.




ElementValue
Catalog43880
NameUWE-4
Epoch Orbit31718
Epoch Day286.70849193
Epoch Year2024
RAAN191.8187
Inclination97.5979
Eccentricity0.00142
Argument of Perigee335.5759
Mean Anonmoly24.4798
Mean Motion15.14247937
Decay Rate0.00025263
L11 43880U 18111E 24286.70849193 .00025263 00000+0 13786-2 0 9992
L22 43880 97.5979 191.8187 0014200 335.5759 24.4798 15.14247937317187



Live tracking and technical data element details for UWE-4 (NORAD 43880). UWE-4 can be tracked NOW for your location showing map with azimuth and elevation plus other details from your city location.







IsCatalogInMostPopularTable: catalog: 43880, numindb: 331
Update: records affected: 1



GetName: 43880 UWE-4

Hit Count: updated at: Thu, 23 Jan 2025 17:05:05 GMT